Regional Weather Roundup
Issued by NWS

Home | Current Version | Previous Version | Text Only | Print | Product List | Glossary Off
Versions: 1 2 3 4 5 6 7 8 9 10 11 12 13 14 15 16 17 18 19 20 21 22 23 24 25 26 27 28 29 30 31 32 33 34 35 36 37 38 39 40 41 42 43 44 45 46 47 48 49 50

000
ASUS43 KMKX 011859
RWRWI

WISCONSIN REGIONAL WEATHER ROUNDUP
NATIONAL WEATHER SERVICE MILWAUKEE/SULLIVAN WI
100 PM CST SUN MAR 01 2015

NOTE: "FAIR" INDICATES FEW OR NO CLOUDS BELOW 12,000 FEET WITH NO
SIGNIFICANT WEATHER AND/OR OBSTRUCTIONS TO VISIBILITY.

WIZ001-002-006>008-014>016-023>028-012000-
NORTHWEST WISCONSIN

CITY           SKY/WX    TMP DP  RH WIND       PRES   REMARKS
SUPERIOR ARPT  SUNNY     23   6  46 W16       30.15F WCI  10
ASHLAND        PTSUNNY   25   8  48 SW10G18   30.12F WCI  15
HAYWARD        PTSUNNY   22   8  55 W6        30.13F WCI  14
SIREN          SUNNY     23   7  50 W9G21     30.19F WCI  13
CUMBERLAND     MOSUNNY   21   5  49 W13G20    30.17F WCI   9
RICE LAKE      MOSUNNY   23  10  57 W10       30.19F WCI  12
CHETEK         PTSUNNY   22  10  58 SW10G17   30.19F WCI  11
LADYSMITH      FLURRIES  21  13  71 SW14      30.18F WCI   8
EAU CLAIRE     PTSUNNY   22  10  60 W15       30.21F WCI   9
MENOMONIE      MOSUNNY   25  10  51 W10       30.22F WCI  15
NEW RICHMOND   SUNNY     23   7  51 W16       30.22F WCI  10
OSCEOLA        SUNNY     24   9  52 W12       30.26F WCI  13
$$

WIZ003>005-009-010-017-018-012000-
NORTH CENTRAL WISCONSIN

CITY           SKY/WX    TMP DP  RH WIND       PRES   REMARKS
MANITOWISH WTR LGT SNOW  17  11  75 SW9G20    30.08F WCI   6
ARBOR VITAE    LGT SNOW  19  11  73 SW12      30.09F WCI   6
WOODRUFF       LGT SNOW  19  11  73 SW12      30.09F WCI   6
RHINELANDER    LGT SNOW  17  10  74 SW10      30.10F WCI   5
EAGLE RIVER    LGT SNOW  17   9  69 W13       30.07F WCI   4
LAND O LAKES   LGT SNOW  19  11  71 W8G16     30.07F WCI   9
PHILLIPS       LGT SNOW  17  11  76 SW10      30.11F WCI   5
TOMAHAWK       LGT SNOW  17  10  73 CALM      30.14F
MEDFORD        LGT SNOW  17  11  78 SW12      30.15F WCI   4
MERRILL        LGT SNOW  18  11  76 SW8       30.16F WCI   7
$$

WIZ029-030-035-036-043>047-012000-
CENTRAL WISCONSIN

CITY           SKY/WX    TMP DP  RH WIND       PRES   REMARKS
WAUSAU         LGT SNOW  17  10  74 SW12      30.16F WCI   4
MOSINEE        LGT SNOW  18  12  79 SW10      30.18F WCI   6
MARSHFIELD     CLOUDY    18  12  77 SW13      30.18F HAZE    WCI   5
STEVENS POINT  CLOUDY    19  11  70 W8        30.20F WCI   9
WAUPACA        PTSUNNY   29  15  55 SW15      30.20F WCI  18
WAUTOMA        NOT AVBL
WISC RAPIDS    CLOUDY    21  11  65 SW12      30.21F WCI   9
CAMP DOUGLAS   CLOUDY    23  18  80 W12       30.23F WCI  12
$$

WIZ011>013-019>022-031-037>040-048>050-012000-
NORTHEAST WISCONSIN

CITY           SKY/WX    TMP DP  RH WIND       PRES   REMARKS
ANTIGO         LGT SNOW  17  11  80 W13       30.14F WCI   3
SHAWANO        PTSUNNY   25  14  62 SW7G16    30.20F WCI  18
OCONTO         PTSUNNY   26  15  63 W12       30.19F WCI  15
STURGEON BAY   PTSUNNY   25  14  63 SW14G20   30.21F WCI  13
GREEN BAY      CLOUDY    26  15  63 SW10      30.20F WCI  16
MANITOWOC      PTSUNNY   28  16  59 SW14      30.24F WCI  17
APPLETON       CLOUDY    27  14  59 SW14      30.21F WCI  15
CLINTONVILLE   PTSUNNY   27  16  63 W10       30.19F WCI  17
OSHKOSH        PTSUNNY   26  14  60 SW14      30.21F WCI  14
$$

WIZ032>034-041-042-053>061-012000-
SOUTHWEST WISCONSIN

CITY           SKY/WX    TMP DP  RH WIND       PRES   REMARKS
LA CROSSE      PTSUNNY   26  14  60 W13       30.26F WCI  15
SPARTA         CLOUDY    22  15  75 SW7       30.26F WCI  14
VIROQUA        CLOUDY    22  16  77 SW12      30.22F WCI  11
BOSCOBEL       MIX PCPN  27  16  63 SW15      30.28F WCI  15
PRAIRIE DU CHI PTSUNNY   26  15  64 W13       30.30F WCI  15
PLATTEVILLE    MOSUNNY   25  17  74 SW13      30.28F WCI  13
$$

WIZ056-057-062-063-064-067-068-012000-
SOUTH CENTRAL WISCONSIN

CITY           SKY/WX    TMP DP  RH WIND       PRES   REMARKS
REEDSBURG      PTSUNNY   23  15  70 SW9       30.25F WCI  13
BARABOO/DELLS  PTSUNNY   23  15  69 SW13      30.24F WCI  12
LONE ROCK      NOT AVBL
MINERAL POINT  PTSUNNY   28  18  64 W13       30.26F WCI  18
MADISON        CLOUDY    24  13  62 SW12G17   30.26F WCI  13
MIDDLETON      PTSUNNY   27  14  56 SW15      30.26F WCI  16
WATERTOWN      MOSUNNY   25  15  66 SW12G17   30.27F WCI  14
MONROE         MOSUNNY   27  18  69 SW14      30.27F WCI  15
JANESVILLE     PTSUNNY   25  14  63 SW9       30.30F WCI  15
$$

WIZ051-052-058>065-066-070>072-012000-
SOUTHEAST WISCONSIN

CITY           SKY/WX    TMP DP  RH WIND       PRES   REMARKS
MILWAUKEE      MOSUNNY   25  13  60 SW13      30.28F WCI  14
WAUKESHA       PTSUNNY   23  12  63 W12       30.28F WCI  12
MILWAUKEE/TIMM NOT AVBL
RACINE         PTSUNNY   24  14  65 SW9       30.30F WCI  14
BURLINGTON     MOSUNNY   22  13  66 SW12      30.30F WCI  11
KENOSHA        MOSUNNY   24  15  68 W12       30.29F WCI  13
FOND DU LAC    PTSUNNY   26  13  57 SW13      30.23F WCI  15
SHEBOYGAN      SUNNY     25  15  66 SW12      30.23F WCI  14
WEST BEND      MOSUNNY   27  12  54 SW10      30.25F WCI  17
JUNEAU         CLOUDY    24  14  68 SW13      30.27F WCI  12
$$

LSZ147-162-012000-
LAKE SUPERIOR

STATION/POSITION TIME  TEMP    WIND        PRES    WAVE
                       AIR SEA DIR/SP/G            HT/PER
                 (UTC) (F)     (DEG/KT/KT) (MB)    (FT/S)
DEVILS ISLAND    1800   19     230/ 19/ 23 1021.3F
PORT WING        1800   20     240/ 14/ 18 1021.3
SAXON HARBOR     1800   22     250/  9/ 15 1020.7F
$$

LMZ867-665-643>646-012000-
LAKE MICHIGAN

STATION/POSITION TIME  TEMP    WIND        PRES    WAVE
                       AIR SEA DIR/SP/G            HT/PER
                 (UTC) (F)     (DEG/KT/KT) (MB)    (FT/S)
NORTHPORT PIER   1808   26     230/  7/ 17 1022.7F
SISTER BAY       1813   27     250/ 15/ 19   N/A
KEWAUNEE LAKESHO 1800   24     240/  8/ 13 1023.3F
SHEBOYGAN LAKESH 1800   23     220/  8/ 12 1026.6F
PORT WASHINGTON  1840   28     210/  5/ 10 1025.7F
MILWAUKEE LAKESH 1800   24     270/  9/ 12   N/A
KENOSHA   LAKESH 1800   23     240/  7/ 11 1026.8F
$$

TC  - TEMPERATURE IN CELSIUS
VSB - VISIBILITY IN STATUTE MILES
WCI - WIND CHILL INDEX
HX  - HEAT INDEX



USA.gov is the U.S. government's official web portal to all federal, state and local government web resources and services.